Location: Ch�risy
(50.2331°N, 2.9131°E)
Time: 23:34:51
(UTC+00:00)

Meteor 1-21 Rocket - Pass Details

Date: 17 January 2021
Orbit: 834 x 906 km, 81.2° (Epoch: 01 March)

Event Time Altitude Azimuth Distance (km) Brightness Sun altitude
Rises 18:30:18 0° 172° (S) 3,375 7.3 -20.7°
Reaches altitude 10° 18:32:45 10° 167° (SSE) 2,442 6.5 -21.0°
Maximum altitude 18:38:02 49° 94° (E) 1,074 4.3 -21.9°
Enters shadow 18:38:28 48° 79° (E) 1,090 4.3 -22.0°
